This is the latest recevied weather packets stored in our database for station/object WA6ODQ-13. If no packets are shown the sender has not sent any weather packets the latest 10 day(s).
| Time | Temp. | Humidity | Pressure | Rain* | Wind** | Luminosity | Snow |
|---|---|---|---|---|---|---|---|
| 1778008137 | 16.11° C | 83% | 1014.4 hPa | 0 mm | - | 84 W/m² | - |
| 1778007833 | 16.67° C | 82% | 1014.4 hPa | 0 mm | - | 70 W/m² | - |
| 1778007528 | 16.67° C | 82% | 1014 hPa | 0 mm | - | 136 W/m² | - |
| 1778007225 | 16.67° C | 81% | 1013.9 hPa | 0 mm | - | 277 W/m² | - |
| 1778006921 | 16.67° C | 81% | 1014.1 hPa | 0 mm | - | 156 W/m² | - |
| 1778006618 | 16.67° C | 81% | 1014.1 hPa | 0 mm | - | 154 W/m² | - |
| 1778006315 | 16.11° C | 82% | 1013.9 hPa | 0 mm | - | 332 W/m² | - |
| 1778006012 | 16.11° C | 82% | 1014.1 hPa | 0 mm | - | 224 W/m² | - |
| 1778005709 | 16.11° C | 84% | 1014 hPa | 0 mm | - | 317 W/m² | - |
| 1778005406 | 15.56° C | 84% | 1013.9 hPa | 0 mm | - | 276 W/m² | - |
| 1778005102 | 15.56° C | 85% | 1013.9 hPa | 0 mm | - | 196 W/m² | - |
| 1778004800 | 15.56° C | 85% | 1014 hPa | 0 mm | - | 136 W/m² | - |
| 1778004496 | 15.56° C | 85% | 1014.1 hPa | 0 mm | - | 159 W/m² | - |
| 1778004193 | 15.56° C | 85% | 1014.1 hPa | 0 mm | - | 190 W/m² | - |
| 1778003889 | 15.56° C | 85% | 1014 hPa | 0 mm | - | 146 W/m² | - |
| 1778003586 | 15.56° C | 85% | 1013.9 hPa | 0 mm | - | 348 W/m² | - |
| 1778003282 | 15.56° C | 85% | 1013.7 hPa | 0 mm | - | 174 W/m² | - |
| 1778002980 | 15.56° C | 86% | 1013.8 hPa | 0 mm | - | 111 W/m² | - |
| 1778002675 | 16.11° C | 84% | 1013.7 hPa | 0 mm | - | 179 W/m² | - |
| 1778002372 | 15.56° C | 83% | 1013.7 hPa | 0 mm | - | 184 W/m² | - |
| 1778002069 | 15.56° C | 84% | 1013.6 hPa | 0 mm | - | 134 W/m² | - |
| 1778001766 | 15.56° C | 82% | 1013.3 hPa | 0 mm | - | 105 W/m² | - |
| 1778001466 | 15.56° C | 84% | 1013.5 hPa | 0 mm | - | 115 W/m² | - |
| 1778001163 | 16.11° C | 84% | 1013.5 hPa | 0 mm | - | 185 W/m² | - |
| 1778000860 | 15.56° C | 83% | 1013.5 hPa | 0 mm | - | 196 W/m² | - |
* Rain latest hour (hover to see other rain measurements)
** Current wind speed in m/s (hover to see current wind gust speed)